Theta_e
322 329 337 343 345 343 339 340 344 348 348 353 347 342 341 344 342 349 344 343 342 338 342 338 331 330 329 325 323 324 328 331
323 326 325 335 342 342 342 339 339 343 345 343 345 340 343 337 343 344 343 343 341 339 342 338 332 331 330 328 325 326 328 330
321 322 326 337 341 341 341 340 338 340 342 344 340 342 339 342 344 340 344 343 341 340 342 337 333 332 331 330 328 327 328 329
321 322 329 339 339 339 340 339 337 336 340 341 341 341 340 336 336 337 338 342 341 341 342 337 334 332 332 331 331 329 327 328
322 322 324 341 337 336 335 335 335 334 341 340 338 340 339 340 335 329 333 341 345 343 342 337 334 334 332 332 331 331 330 330
322 322 323 339 340 336 336 338 335 336 338 341 343 338 339 342 342 331 332 334 338 341 340 336 335 334 333 333 332 332 332 332
322 325 326 339 340 338 338 339 340 340 338 336 339 338 344 345 345 341 341 335 333 335 335 336 336 335 334 333 333 334 334 333
321 324 324 332 337 338 340 341 339 339 339 337 339 344 344 343 344 343 343 338 334 332 332 334 335 335 333 332 332 332 332 332
320 321 321 329 338 338 339 340 337 337 337 336 336 339 344 343 343 342 338 334 333 331 328 328 330 330 331 331 330 329 329 329
317 320 321 322 332 341 339 337 336 335 335 334 334 335 342 344 343 342 338 335 329 328 330 327 326 326 327 329 328 327 325 326
315 316 319 323 323 333 339 339 337 338 340 337 337 339 340 344 344 344 342 340 336 330 330 338 339 328 328 329 327 328 328 329
315 315 319 321 322 323 324 334 339 340 343 342 341 342 340 342 343 343 343 342 342 340 339 342 342 342 340 338 338 339 339 339
316 318 318 319 320 321 321 322 330 335 340 352 349 347 343 341 340 337 341 343 343 342 342 341 342 342 343 343 342 341 341 340
315 320 319 319 317 318 319 323 326 353 354 355 354 354 355 346 343 338 342 343 342 342 342 342 343 344 349 347 344 344 343 343
317 318 319 319 317 317 319 322 337 353 353 355 353 351 352 354 354 349 344 346 344 344 347 346 347 351 349 351 351 350 349 348
318 319 317 317 316 318 320 321 350 350 350 352 351 350 350 351 352 353 354 354 353 352 348 350 350 352 351 349 350 350 350 349
320 318 317 318 318 317 322 322 339 347 349 349 348 345 347 349 350 352 352 353 354 355 355 354 355 356 355 352 351 349 347 346
321 320 318 317 317 316 322 323 338 346 348 347 345 343 343 345 348 349 350 351 351 352 353 354 355 354 352 350 344 342 341 339
320 321 320 322 321 322 324 324 334 346 346 345 345 343 341 341 344 345 345 347 349 347 348 350 351 351 347 343 341 339 337 336
322 322 321 319 319 319 320 325 337 347 345 344 343 342 341 341 341 341 343 344 345 346 346 346 348 348 345 342 339 335 334 332
Wind_Speed
3 3 3 5 15 14 19 16 7 6 9 5 3 9 11 18 37 35 35 33 30 27 24 22 21 19 18 18 18 19 19 19
3 5 6 5 8 19 19 13 8 7 6 8 7 11 16 38 37 36 34 31 28 25 23 22 20 20 19 18 18 18 18 17
1 6 6 2 5 4 13 5 6 13 4 2 6 21 36 36 32 34 32 30 28 26 23 21 20 18 17 17 16 16 16 15
3 5 1 5 5 10 7 6 6 7 6 3 23 35 31 33 32 31 33 29 27 25 23 21 19 18 17 16 15 14 14 13
3 4 2 4 7 3 7 6 4 1 6 6 20 28 33 30 30 29 28 28 25 24 22 20 19 18 17 15 14 13 13 12
2 4 6 4 1 2 5 5 5 6 5 4 15 30 32 33 31 31 30 29 28 25 23 21 20 18 17 16 14 13 12 12
3 4 3 4 6 4 3 4 2 3 2 6 31 36 33 28 26 30 30 31 29 28 24 22 20 19 18 17 15 14 13 12
5 3 3 8 2 8 4 5 4 1 2 3 22 32 29 24 22 25 28 32 31 29 27 24 23 21 20 19 18 17 16 15
12 7 7 9 7 2 8 4 8 14 11 10 11 19 25 24 28 29 31 32 33 31 29 27 25 23 22 22 20 19 17 16
9 5 7 2 11 5 8 10 17 12 8 11 11 11 24 23 27 29 33 34 34 32 32 28 26 26 24 23 22 21 20 17
10 4 10 4 5 10 11 9 6 10 8 12 13 8 24 37 38 33 30 32 35 34 33 31 28 26 24 23 23 20 18 18
9 9 6 6 4 5 11 7 8 11 12 5 5 4 24 34 31 31 31 35 34 35 34 34 30 27 24 23 22 20 19 18
6 4 6 6 4 5 7 7 14 9 6 8 3 12 20 31 26 28 37 32 35 36 36 34 29 28 25 22 21 22 22 23
8 3 5 8 10 10 7 11 11 12 15 14 11 14 19 18 17 24 23 30 34 33 35 35 32 28 19 23 19 22 23 25
9 5 4 6 11 9 7 9 11 13 14 15 14 16 19 23 24 24 27 25 32 30 32 31 27 23 18 15 11 9 10 11
7 6 5 7 12 6 9 11 17 12 13 13 13 10 18 20 23 27 27 24 21 23 26 18 15 10 10 10 11 11 12 9
15 12 5 15 19 11 11 11 13 13 14 12 13 10 21 21 19 20 21 23 21 18 14 18 15 12 9 5 2 6 8 8
16 8 6 4 16 9 9 9 21 18 13 15 10 7 11 20 19 17 17 17 17 15 13 12 12 11 5 7 16 19 21 24
16 6 3 3 8 1 7 5 13 14 16 13 18 14 9 13 20 20 17 15 14 14 13 9 9 13 20 23 21 18 17 18
9 0 4 5 4 5 5 10 15 16 13 14 14 11 10 15 18 20 19 16 14 13 11 9 9 18 21 22 22 18 15 15
Wind_Direction
93 109 140 116 122 114 71 42 47 51 32 34 81 117 139 161 158 155 152 157 159 157 155 150 145 139 134 129 128 128 127 128
73 301 264 134 179 140 112 95 74 77 46 320 11 153 161 158 159 156 154 158 159 158 157 154 150 146 142 136 134 135 135 136
92 265 306 351 171 247 80 95 106 105 172 47 33 133 146 155 159 153 152 158 160 162 161 158 155 151 146 142 140 141 142 143
327 285 331 352 243 114 126 180 179 108 139 133 135 131 151 158 160 158 155 159 161 163 163 162 160 157 154 151 150 149 150 153
253 297 28 210 259 126 152 146 231 33 97 125 157 154 154 163 159 161 160 159 162 164 166 166 166 165 162 162 162 163 162 163
263 328 329 113 293 124 69 220 345 355 127 172 166 158 161 160 162 163 165 166 166 167 171 171 172 174 172 174 175 177 177 177
271 48 13 163 149 286 337 100 294 131 319 146 153 157 149 151 156 165 171 173 171 171 174 176 178 179 181 184 186 188 191 193
208 245 173 204 32 154 133 191 268 28 218 185 138 148 149 159 160 170 179 179 178 176 176 178 184 187 189 191 195 198 201 205
281 263 266 191 138 185 156 242 219 201 176 171 161 154 160 170 173 177 184 181 185 183 181 181 187 192 195 199 202 205 210 214
277 237 273 304 147 179 211 210 204 208 189 172 183 173 169 168 170 182 186 189 189 188 187 186 189 196 199 203 207 211 215 217
266 251 241 268 143 184 224 249 170 206 199 197 199 140 166 181 187 186 178 189 195 189 192 188 188 193 203 209 210 213 215 216
289 262 212 191 253 118 228 227 185 187 204 185 310 171 175 181 187 176 182 191 195 192 195 193 193 194 204 208 210 214 217 217
278 261 210 134 326 224 189 175 204 204 126 93 133 113 190 191 185 200 192 189 199 196 202 200 202 201 207 215 220 224 230 231
276 203 249 124 253 258 236 145 121 125 123 111 85 79 84 141 185 190 196 196 201 198 204 204 209 199 206 218 235 240 242 248
297 216 204 157 247 248 191 167 137 134 125 110 97 74 79 103 120 138 182 183 198 194 192 191 190 191 187 183 197 212 229 247
255 273 167 249 252 251 195 160 151 150 133 124 120 119 101 104 111 116 127 135 155 187 197 196 197 206 206 210 230 244 254 269
269 267 187 237 228 204 195 154 152 161 153 146 136 142 120 118 115 114 113 117 125 142 164 197 186 191 199 209 206 89 72 76
284 252 183 267 218 200 184 189 166 164 160 153 144 149 132 127 124 121 122 119 117 128 136 152 180 167 134 134 102 107 100 91
249 257 319 75 325 261 236 206 158 177 168 159 161 157 152 139 135 132 128 131 132 121 128 144 158 138 123 118 109 100 89 83
263 320 245 118 256 292 249 236 168 178 174 170 164 154 150 141 134 132 127 132 139 129 122 132 125 149 147 135 116 106 101 95